Regional Weather Roundup
Issued by NWS

Home | Current Version | Previous Version | Text Only | Print | Product List | Glossary Off
Versions: 1 2 3 4 5 6 7 8 9 10 11 12 13 14 15 16 17 18 19 20 21 22 23 24 25 26 27 28 29 30 31 32 33 34 35 36 37 38 39 40 41 42 43 44 45 46 47 48 49 50

000
ASUS43 KDMX 200007
RWRIA

WEATHER ROUNDUP FOR IOWA
NATIONAL WEATHER SERVICE DES MOINES IA
700 PM CDT FRI SEP 19 2014

NOTE: "FAIR" INDICATES FEW OR NO CLOUDS BELOW 12,000 FEET WITH NO
SIGNIFICANT WEATHER AND/OR OBSTRUCTIONS TO VISIBILITY.

* - THESE STATIONS ARE NOT NWS STATIONS...THUS NOT UNDER NWS
QUALITY CONTROL.  THEY ALSO DO NOT REPORT WEATHER SUCH
AS PRECIPITATION OR FOG.

IAZ001>003-012>014-020>022-031>034-043>046-200100-
   NORTHWEST IOWA

CITY           SKY/WX    TMP DP  RH WIND       PRES   REMARKS
CARROLL *      CLEAR     73  68  83 S10G22    29.80R
CHEROKEE *     CLEAR     79  71  74 S12       29.75S HX  82
DENISON *      CLEAR     77  70  78 S17G23    29.77R
LE MARS *      CLEAR     82  68  61 S8        29.73S HX  85
ORANGE CITY *  CLEAR     82  66  57 S10       29.73F HX  85
SHELDON *      CLEAR     81  68  65 S8        29.72S HX  83
SIOUX CITY     CLEAR     84  66  54 S7        29.74R HX  86
6HR MIN TEMP:  81; 6HR MAX TEMP:  90;

SPENCER        CLEAR     80  68  66 S13       29.74S HX  83
6HR MIN TEMP:  79; 6HR MAX TEMP:  86;

STORM LAKE *   CLEAR     77  72  83 S10G16    29.78S
$$

IAZ055>058-069>071-079>083-090>094-200100-
   SOUTHWEST IOWA

CITY           SKY/WX    TMP DP  RH WIND       PRES   REMARKS
ATLANTIC *     CLEAR     73  68  83 S12G20    29.82S
AUDUBON *      CLEAR     73  64  73 S13G20    29.82F
CLARINDA *     CLEAR     75  68  78 S8G16     29.87F
COUNCIL BLFS * CLEAR     79  72  78 S15G21    29.80S HX  82
CRESTON *      CLOUDY    70  66  88 S14G23    29.89F
HARLAN  *      CLEAR     77  70  78 S12G21    29.84S
LAMONI         CLEAR     72  66  81 S14G20    29.91F
6HR MIN TEMP:  72; 6HR MAX TEMP:  76;

RED OAK *      CLEAR     77  68  73 S15G22    29.84S
SHENANDOAH *   CLEAR     77  70  78 S13G21    29.85R
$$

IAZ047>049-059>061-072>074-084-200100-
   CENTRAL IOWA

CITY           SKY/WX    TMP DP  RH WIND       PRES   REMARKS
AMES           CLEAR     74  66  76 S15G24    29.83R
6HR MIN TEMP:  74; 6HR MAX TEMP:  79;

ANKENY *       CLEAR     75  66  73 S16G22    29.84R
CHARITON *     CLEAR     73  64  73 S13       29.89F
DES MOINES     PTCLDY    76  65  68 S14       29.85S
6HR MIN TEMP:  76; 6HR MAX TEMP:  81;

GRINNELL*      CLEAR     72  61  69 S13G21    29.88S
KNOXVILLE *    CLEAR     73  63  68 S15G22    29.86F
MARSHALLTOWN   CLEAR     73  62  68 S16G28    29.84S
6HR MIN TEMP:  73; 6HR MAX TEMP:  78;

PELLA *        CLEAR     73  63  71 S15G21    29.89F
PERRY *          N/A     74  66  77 S10       29.83S
$$

IAZ004>006-015-016-023>025-035-036-200100-
   NORTH CENTRAL IOWA

CITY           SKY/WX    TMP DP  RH WIND       PRES   REMARKS
ALGONA *       CLEAR     79  68  69 S16G23    29.76S HX  81
CLARION *        N/A     77  66  69 S18G25    29.78R
ESTHERVILLE    CLEAR     79  67  66 S17G23    29.72F HX  81
6HR MIN TEMP:  77; 6HR MAX TEMP:  84;

FORT DODGE *   CLEAR     75  66  73 S18       29.80R
MASON CITY     CLEAR     75  65  70 S16G24    29.80R
6HR MIN TEMP:  75; 6HR MAX TEMP:  80;

FOREST CITY *  CLEAR     77  66  69 S15       29.77S
IOWA FALLS *     N/A     73  64  73 S17G26    29.82S
$$

IAZ007>011-017>019-026>030-037>042-050>054-066-200100-
   NORTHEAST IOWA

CITY           SKY/WX    TMP DP  RH WIND       PRES   REMARKS
CEDAR RAPIDS   CLEAR     71  59  65 S12G22    29.89F
6HR MIN TEMP:  71; 6HR MAX TEMP:  75;

CHARLES CITY * CLEAR     72  61  68 S18G29    29.78F
CLINTON *      CLEAR     70  54  56 S10       29.96F
DECORAH *      CLEAR     70  59  68 S13G25    29.78F
DUBUQUE        PTCLDY    69  54  58 S17       29.89F
6HR MIN TEMP:  69; 6HR MAX TEMP:  74;

MONTICELLO *   CLEAR     70  57  64 S10       29.89F
OELWEIN *      CLEAR     70  59  68 S20G26    29.84F
WATERLOO       CLEAR     72  60  66 S18G30    29.81F
6HR MIN TEMP:  72; 6HR MAX TEMP:  77;

$$

IAZ064-065-067-068-078-200100-
   EAST CENTRAL IOWA

CITY           SKY/WX    TMP DP  RH WIND       PRES   REMARKS
DAVENPORT      PTCLDY    70  53  54 S12       29.94F
6HR MIN TEMP:  70; 6HR MAX TEMP:  76;

IOWA CITY      CLEAR     71  59  65 S10       29.92F
6HR MIN TEMP:  71; 6HR MAX TEMP:  76;

MT. PLEASANT * CLEAR     71  56  58 S6        29.95S
MUSCATINE *    CLEAR     72  57  60 S10       29.93F
QUAD CITIES    CLEAR     71  54  54 S7        29.94F
6HR MIN TEMP:  71; 6HR MAX TEMP:  76;

$$

IAZ062-063-075>077-085>089-095>099-200100-
   SOUTHEAST IOWA

CITY           SKY/WX    TMP DP  RH WIND       PRES   REMARKS
BURLINGTON     PTCLDY    68  57  68 S9        29.96F
6HR MIN TEMP:  68; 6HR MAX TEMP:  77;

FAIRFIELD *    CLEAR     72  59  64 S10       29.93F
FORT MADISON * CLEAR     72  57  60 S7        29.97F
KEOKUK *       CLEAR     72  57  60 S7        29.96F
OSKALOOSA *      N/A     71  62  72 S13       29.90F
CENTERVILLE *  CLEAR     72  64  78 S8        29.94F
OTTUMWA        CLEAR     72  60  66 S12       29.90F
6HR MIN TEMP:  72; 6HR MAX TEMP:  76;

WASHINGTON *   CLEAR     70  59  68 S9        29.93S
$$

ABBREVIATIONS USED IN REMARKS
   TC - TEMPERATURES IN CELSIUS
  WCI - WIND CHILL INDEX
   HX - HEAT INDEX
  VSB - VISIBILITY
$$




USA.gov is the U.S. government's official web portal to all federal, state and local government web resources and services.